Location: Neuvy Saint Sepulchre
(46.5953°N, 1.8122°E)
Time: 16:31:08
(UTC+02:00)

ISS - Pass Details

Date: 05 May 2026
Orbit: 414 x 424 km, 51.6° (Epoch: 21 May)

Event Time Altitude Azimuth Distance (km) Brightness Sun altitude
Exits shadow 03:18:01 32° 345° (NNW) 750 -2.1 -24.1°
Maximum altitude 03:18:25 33° 1° (N) 731 -2.1 -24.1°
Drops below altitude 10° 03:21:31 10° 67° (ENE) 1,500 -0.4 -23.9°
Sets 03:23:45 0° 77° (ENE) 2,366 0.6 -23.7°
